Location: LDNL
(36.4545°S, 141.6685°E)
Time: 03:02:52
(UTC+11:00)

A-11 Canister half - Pass Details

Date: 12 August 2022
Orbit: 1524 x 1684 km, 47.3° (Epoch: 05 October)

Event Time Altitude Azimuth Distance (km) Brightness Sun altitude
Rises 01:51:22 0° 242° (WSW) 4,733 - -63.2°
Reaches altitude 10° 01:54:45 10° 250° (WSW) 3,764 - -62.8°
Maximum altitude 02:02:59 34° 310° (NW) 2,401 - -61.6°
Drops below altitude 10° 02:11:26 10° 10° (N) 3,850 - -60.3°
Sets 02:14:59 0° 19° (NNE) 4,853 - -59.7°
